FLOCK 2K-31 (42869 NORAD) Tracking and Keplerian Element Data

This shows tracking and keplerian element data for the satellite.

Feedback or suggestion? Click here.




ElementValue
Catalog42869
NameFLOCK 2K-31
Epoch Orbit3280
Epoch Day45.50615799
Epoch Year2018
RAAN308.3136
Inclination96.9927
Eccentricity0.0010625
Argument of Perigee184.2308
Mean Anonmoly175.8848
Mean Motion15.35664992
Decay Rate7.699E-05
L11 42869U 17042AW 18045.50615799 .00007699 00000-0 22377-3 0 9998
L22 42869 96.9927 308.3136 0010625 184.2308 175.8848 15.35664992 32801

Live tracking and technical data element details for FLOCK 2K-31 (NORAD 42869). FLOCK 2K-31 can be tracked NOW for your location showing map with azimuth and elevation plus other details from your city location.

Track the satellite on the map from your city or location and see movement details for azimuth, elevation, latitude, longitude, range, height, and movement on the map or in text.







IsCatalogInMostPopularTable: catalog: 42869, numindb: 78
Update: records affected: 1



GetName: 42869 FLOCK 2K-31

Hit Count: updated at: Fri, 20 Jul 2018 07:06:04 GMT